Regional Weather Roundup
Issued by NWS

Home | Current Version | Previous Version | Text Only | Print | Product List | Glossary On
Versions: 1 2 3 4 5 6 7 8 9 10 11 12 13 14 15 16 17 18 19 20 21 22 23 24 25 26 27 28 29 30 31 32 33 34 35 36 37 38 39 40 41 42 43 44 45 46 47 48 49 50
000
ASUS44 KFWD 241315
RWRTX
NORTH TEXAS HOURLY WEATHER ROUNDUP
NATIONAL WEATHER SERVICE FORT WORTH TX
800 AM CDT MON JUL 24 2017

NOTE: "FAIR" INDICATES FEW OR NO CLOUDS BELOW 12,000 FEET WITH NO
SIGNIFICANT WEATHER AND/OR OBSTRUCTIONS TO VISIBILITY.

TXZ118-119-241400-
DALLAS/FORT WORTH METROPLEX

CITY           SKY/WX    TMP DP  RH WIND       PRES   REMARKS
DFW AIRPORT    CLOUDY    76  73  91 SE3       29.94R
DALLAS LOVE    CLOUDY    75  72  90 SE8       29.95R
FTW MEACHAM    CLOUDY    77  74  90 NE6       29.96R
DAL-EXECUTIVE  CLOUDY    73  73 100 SE7       29.94R
FTW-ALLIANCE   CLOUDY    75  73  93 CALM      29.96R
FTW-NAS-JRB    CLOUDY    77  72  84 CALM      29.97R
FTW-SPINKS     PTSUNNY   73  72  94 CALM      29.97R
ARLINGTON      CLOUDY    75  73  93 E8        29.95R
GRAND PRAIRIE  MOSUNNY   73  73 100 SE7       29.96R
ADDISON        PTSUNNY   75  72  88 E7        29.96R
MESQUITE       MOSUNNY   73  72  94 CALM      29.95R
LANCASTER      CLOUDY    73  70  89 SE9       29.95S
$$

TXZ091>094-102>105-117-120-121-131>134-241400-
NORTH CENTRAL TEXAS

CITY           SKY/WX    TMP DP  RH WIND       PRES   REMARKS
SHRMAN/DENISON MOSUNNY   72  70  95 E8        29.98R
GAINESVILLE    MOSUNNY   73  70  90 CALM      29.99R
BOWIE          PTSUNNY   72  72 100 N7        29.98R
BRIDGEPORT     CLOUDY    74  72  94 CALM      29.98R
DECATUR        SUNNY     74  70  87 E6        29.99R
DENTON         CLOUDY    74  73  97 SE7       29.96R
MCKINNEY       CLOUDY    73  73 100 SE3       29.95R
BONHAM         CLOUDY    73  70  88 NE7       29.95S
GREENVILLE     CLOUDY    77  73  88 SE3       29.96R
ROCKWALL       CLOUDY    73  73  98 SE3       29.96R
TERRELL        CLOUDY    75  70  84 SE6       29.94S
WAXAHACHIE     DRIZZLE   73  73 100 E6        29.97R
CLEBURNE       DRIZZLE   75  73  94 CALM      29.98R
GRANBURY       CLOUDY    77  70  77 SE6       29.96R
$$

TXZ083>090-098>101-113>116-127>130-139>142-154-155-241400-
WESTERN NORTH TEXAS

CITY           SKY/WX    TMP DP  RH WIND       PRES   REMARKS
WICHITA FALLS  SUNNY     74  70  87 NW9       29.97R
WF-KICKAPOO    SUNNY     74  71  88 NW5       29.99R
VERNON         MOSUNNY   74  70  86 CALM      29.99R
ABILENE        CLOUDY    73  69  87 S7        30.00S
ABILENE-DYESS  CLOUDY    74  70  88 CALM      30.00R
GRAHAM         CLOUDY    75  70  84 SW3       29.96R
BRECKENRIDGE   CLOUDY    76  68  76 S8        29.96F
CISCO          PTSUNNY   72  70  94 S8        29.98F
EASTLAND       CLOUDY    74  69  86 S7        29.98S
RANGER         CLOUDY    72  69  90 SW8       29.98S
MINERAL WELLS  PTSUNNY   74  70  87 N3        29.96R
STEPHENVILLE   CLOUDY    73  69  89 CALM      29.99S
COMANCHE       CLOUDY    73  71  95 CALM      29.99R
BROWNWOOD      CLOUDY    73  68  83 CALM      29.99S
COLEMAN        CLOUDY    74  68  81 SW5       30.00S
$$

TXZ143>147-156>162-174-175-241400-
CENTRAL TEXAS

CITY           SKY/WX    TMP DP  RH WIND       PRES   REMARKS
WACO           MOSUNNY   77  71  82 CALM      29.96R
WACO-TSTC      SUNNY     75  72  88 CALM      29.96R
WACO-MCGREGOR  CLOUDY    76  70  82 S3        29.97R
CORSICANA      MOSUNNY   77  72  84 E7        29.97R
MEXIA          PTSUNNY   76  70  82 W5        29.96R
HEARNE         PTSUNNY   78  76  94 S5        29.98R
CAMERON        MOSUNNY   80  75  85 SW7       29.97R
TEMPLE         CLOUDY    77  72  84 S3        29.98R
KILLEEN        CLOUDY    76  68  76 S3        29.98R
KILLEEN-SKYLRK CLOUDY    77  71  82 S3        29.99
FORT HOOD      CLOUDY    74  69  83 S3        29.96R
HAMILTON       PTSUNNY   73  73  97 S7        29.99R
LAMPASAS         N/A     72  70  93 CALM      29.99R
$$

TXZ095>097-106>112-122>126-135>138-148>153-164>167-241400-
EAST TEXAS

CITY           SKY/WX    TMP DP  RH WIND       PRES   REMARKS
PARIS            N/A     74  72  93 CALM      29.96R
SULPHUR SPRNGS MOSUNNY   74  74 100 E7        29.96F FOG
MOUNT PLEASANT CLOUDY    74  74 100 CALM      29.97S
GILMER         MOSUNNY   73  69  88 CALM      29.97R
MINEOLA        MOSUNNY   75  72  88 NE3       29.95R
TYLER          MOSUNNY   74  72  93 S7        29.97R
LONGVIEW       PTSUNNY   75  73  93 S5        29.97R
MARSHALL         N/A     75  70  85 CALM      29.99R
ATHENS         CLOUDY    73  68  83 CALM      29.96R
PALESTINE      CLOUDY    77  74  92 NE6       29.98R
JACKSONVILLE   CLOUDY    74  74  98 SE6       30.02R
HENDERSON      CLOUDY    74  73  94 SE8       30.01R
CENTER         RAIN      76  74  95 SW5       30.00R
NACOGDOCHES    CLOUDY    72  72 100 W9        30.01R THUNDER
LUFKIN         RAIN      72  70  93 SW3       30.03R FOG
$$

SUPPLEMENTAL OBSERVATIONS (NWS FORT WORTH AREA)

CITY           SKY/WX    TMP DP  RH WIND       PRES   REMARKS
DENISON DAM      N/A     73  68  83 SE3         N/A
CADDO GRASSLND   N/A     73  70  88 NE1         N/A
PAT MAYSE LAKE   N/A     72  70  94 CALM        N/A
GREENVILLE       N/A     75  72  88 E2          N/A
CEDAR HILL       N/A     73  70  88 SE5G13      N/A
LBJ GRASSLAND    N/A     75  72  88 E3          N/A
POSSUM KINGDOM   N/A     79  70  73 SW3         N/A
GRANBURY         N/A     77  70  78 E6          N/A
COMANCHE         N/A     73  68  83 N5          N/A
MCGREGOR         N/A     75  70  83 SW2         N/A
TEMPLE           N/A     79  73  83 S2          N/A
LAKE LIMESTONE   N/A     79  75  89 S9          N/A
ATHENS           N/A     79  70  73 SE6         N/A
$$

SUPPLEMENTAL OBSERVATIONS (NWS NORMAN AREA)

CITY           SKY/WX    TMP DP  RH WIND       PRES   REMARKS
GOODLETT         N/A     75  67  75 NE3       30.00R
ODELL            N/A     75  73  93 N2        30.01R
CROWELL          N/A     76  70  81 W1        30.00S
KNOX CITY        N/A     76  68  75 SW5       30.00R
SEYMOUR          N/A     76  68  75 SW3       30.00R
MILLERS CREEK    N/A     77  70  78 SW6         N/A
$$

SUPPLEMENTAL OBSERVATIONS (NWS SAN ANGELO AREA)

CITY           SKY/WX    TMP DP  RH WIND       PRES   REMARKS
WEINERT          N/A     76  68  75 S8        29.99S
HASKELL          N/A     76  66  72 S12       29.99S
THROCKMORTON     N/A     75  70  86 S8        29.99S
STAMFORD         N/A     76  69  78 S10       30.00S
CLYDE            N/A     73  68  83 S10       30.02S
HAMBY            N/A     75  66  73 S10         N/A
IVIE RESERVOIR   N/A     73  68  83 S6          N/A
COLORADO BEND    N/A     73  66  78 S3          N/A
$$

SUPPLEMENTAL OBSERVATIONS (NWS SHREVEPORT AREA)

CITY           SKY/WX    TMP DP  RH WIND       PRES   REMARKS
CLARKSVILLE      N/A     75  70  83 N1          N/A
TEXARKANA        N/A     79  73  83 W1          N/A
LINDEN           N/A     73  68  83 SW1         N/A
CADDO LAKE       N/A     75  70  83 W2          N/A
GILMER           N/A     75  70  83 SE1         N/A
HENDERSON        N/A     75  73  94 SE3         N/A
LUFKIN           N/A     73  70  88 MISG        N/A
N SABINE NF      N/A     73  72  94 MISG        N/A
S SABINE NF      N/A     75  73  94 W1          N/A
$$

SUPPLEMENTAL OBSERVATIONS ARE A COLLECTION OF AUTOMATED INSTRUMENTS
THAT ARE MAINTAINED BY A VARIETY OF FEDERAL AND STATE AGENCIES.
CERTAIN ELEMENTS...SUCH AS HUMIDITY VALUES AND SUSTAINED WIND
SPEEDS...MAY BE APPROXIMATED.




USA.gov is the U.S. government's official web portal to all federal, state and local government web resources and services.